STARLINK-33781, 63826

Orbit data source: Space-Track

STARLINK-33781, 63826 is a payload satellite owned by SpaceX/Seattle (US) in LEO that was launched on Sun, 04 May 2025 UTC via an FALCON 9 launch vehicle from the Air Force Eastern Test Range (AFETR). Payload-class satellites include a variety of spacecraft equipped with specific instruments for various scientific and technological missions. These include communications satellites like Starlink; space stations such as the ISS; scientific satellites like the Hubble; Earth observation satellites from companies like Planet Labs, Umbra, and HawkEye 360; GPS; miniature CubeSats for education and research; and military/defense satellites.

Loading next visibility...
Identifier
63826, 2025-092Y
Orbit
LEO
Country
Flag of USUS
Related business
Manufacturer
SpaceX/Seattle
Mission
Operational Commercial Communications
Bus & Motor
STARLINK V2MO, Unknown motor
Mass
575 kg wet, ~530 kg dry
Launch date (UTC)
2025-05-04 (5 months ago)
Launch vehicle
FALCON 9
Launch site
Air Force Eastern Test Range (AFETR)
Object type
Payload
Rocket body
Debris
Shape & HBR
Box + 2 Pan, 17.7 m
Radar Cross Section
36.964 m², Large (>1 m²)

Expand to show TLE details & history
Last TLE update: 1 day ago

TLE from 1 day ago
0 STARLINK-33781
1 63826U 25092Y   25285.73657122  .00050412  00000-0  18271-2 0  9991
2 63826  43.0017 288.4094 0001584 276.4326  83.6345 15.27614624 26033
Epoch: 2025-10-12T17:40Z
TLE epoch observation values (Epoch: 2025-10-12T17:40:39.753Z)
Latitude
-0.00004°
Longitude
1.6943°
Altitude
482.601 km
Speed
7.626 km/s
True Right ascension
19h 13m 38s
True Declination
0° 00' 00"
Sunlit
Object was in daylight at epoch
Visualization orbit readout
Latitude
Unknown
Longitude
Unknown
Altitude
Unknown
Speed
Unknown
Apparent Right ascension
Unknown
Apparent Declination
Unknown
Sunlit
N/A
Visualization observer readout
Local Sidereal Time
18:28:59
Azimuth
Unknown
Elevation
Unknown
Doppler factor
Unknown
Orbital elements
Apogee altitude
485.977 km
Perigee altitude
483.803 km
Semi-major axis
6,863.027 km
Eccentricity
0.00016
Inclination
43.0017°
RAAN
288.4094°
Arg. of periapsis
276.4326°
True anomaly
83.65254°
Mean anomaly
83.6345°
Eccentric anomaly
83.64352°
Mean motion
3.81742 °/min
Orbital period
94.3 mins
BSTAR
0.0018271
Loading maneuver chart data...
Computing Atmospheric mass density...
Loading historical data...
Loading historical data...
Loading historical data...
Loading historical data...
Loading historical data...
Loading historical data...
Loading historical data...

Documentation

Showing up to 5 results
|